{"data":{"norad_id":56015,"intl_designator":"2023-042AF","name":"STARLINK-5939","alt_names":[],"object_type":"PAYLOAD","status":"ACTIVE","operator":null,"country":"US","launch_date":"2023-03-24","launch_site_code":"AFETR","launch_vehicle":null,"mission":null,"orbit_class":"UNKNOWN","rcs_meters":null,"size_class":null,"mass_kg":null,"dimensions":null,"purposes":["comms"],"wikipedia_slug":null,"has_3d_model":false,"image_url":null,"decayed_at":null,"tle_current":{"epoch":"2026-05-24T19:59:27.106368Z","epoch_age_seconds":96368,"freshness":"FRESH","line1":"1 56015U 23042AF  26144.83295262 -.00000129  00000+0  48465-5 0  9996","line2":"2 56015  43.0044 334.9591 0001231 246.1836 113.8887 15.27575305174687","mean_motion":15.27575305,"eccentricity":0.0001231,"inclination_deg":43.0044,"raan_deg":334.9591,"arg_perigee_deg":246.1836,"mean_anomaly_deg":113.8887,"bstar":4.8465e-6,"rev_number":17468,"period_min":94.267038442337,"perigee_km":482.21854085565,"apogee_km":483.90776833371,"semimajor_km":6861.2001545947,"source":"CELESTRAK","updated_at":"2026-05-25T13:38:17.927533Z"}}}